Tracking 35275 objects as of 9-Sep-2026
HD Live streaming from Space Station
objects crossing your sky now

WESTAR 5

Track WESTAR 5 now!
WESTAR 5 is classified as:


NORAD ID: 13269
Int'l Code: 1982-058A
Launch date: June 9, 1982
Source: United States (US)
Launch site: AIR FORCE EASTERN TEST RANGE (AFETR)
Your satellite tracking list
Your tracking list is empty




NASA's NSSDC Master Catalog

Two Line Element Set (TLE):
1 13269U 82058A   26251.87836000 -.00000030  00000-0  00000+0 0  9995
2 13269  13.0511 336.6326 0018503 274.1891  81.1901  0.99216125120369
Source of the keplerian elements: AFSPC